Regional Weather Roundup
Issued by NWS Newport/Morehead, NC

Current Version | Previous Version | Graphics & Text | Print | Product List | Glossary On
Versions: 1 2 3 4 5 6 7 8 9 10 11 12 13 14 15 16 17 18 19 20 21 22 23 24 25 26 27 28 29 30 31 32 33 34 35 36 37 38 39 40 41 42 43 44 45 46 47 48 49 50
043 ASUS42 KMHX 281725 RWRMHX WEATHER ROUNDUP FOR EASTERN NORTH CAROLINA NATIONAL WEATHER SERVICE NEWPORT/MOREHEAD CITY NC 100 PM EDT FRI APR 28 2017 NOTE: "FAIR" INDICATES FEW OR NO CLOUDS BELOW 12,000 FEET WITH NO SIGNIFICANT WEATHER AND/OR OBSTRUCTIONS TO VISIBILITY NCZ015>017-031-032-045>047-102-103-281800- NORTH COAST CITY SKY/WX TMP DP RH WIND PRES REMARKS EDENTON MOSUNNY 85 71 63 W9 30.09S ELIZABETH CITY MOSUNNY 84 74 71 SW9 30.07S KITTY HAWK CLOUDY 82 70 68 CALM 30.08S MANTEO CLOUDY 79 71 75 W9 30.10R $$ NCZ045>047-081-094-103-104-281800- CENTRAL COAST CITY SKY/WX TMP DP RH WIND PRES REMARKS FRISCO PTSUNNY 79 71 76 SW12G18 30.13S HAZE $$ NCZ095-097-098-100-101-281800- SOUTHERN COAST CITY SKY/WX TMP DP RH WIND PRES REMARKS BEAUFORT CLOUDY 78 75 90 S13 30.13R CEDAR ISLAND NOT AVBL JACKSONVILLE PTSUNNY 85 75 72 SW10 30.08F PINEY ISLAND CLOUDY N/A N/A N/A SW18G25 30.11S WILMINGTON CLOUDY 83 73 72 SW13G22 30.10F $$ NCZ011>013-027>030-043-044-078>080-089-090>093-098-281800- COASTAL PLAIN CITY SKY/WX TMP DP RH WIND PRES REMARKS AHOSKIE N/A 82 70 66 SW3 30.07S CLINTON MOSUNNY 85 72 65 W7 30.08F ELIZABETHTOWN MOSUNNY 85 69 58 S8G16 30.08F GOLDSBORO MOSUNNY 85 75 71 SW10 30.07S GREENVILLE PTSUNNY 82 72 69 SW9 30.09F HAVELOCK NOT AVBL KENANSVILLE MOSUNNY 84 70 61 S7 30.09S KINSTON MOSUNNY 86 70 58 SW8 30.09S NEW BERN PTSUNNY 85 73 67 S8G18 30.10F RICHLANDS PTSUNNY 85 73 67 S14 30.09F ROCKY MOUNT N/A N/A N/A N/A MISG 30.07F WASHINGTON SUNNY 85 71 63 SW9 30.08S WHITEVILLE MOSUNNY 86 71 59 S8 30.08F $$ AMZ130-135-150-152-154-156-158-170-250-252-270-ANZ085-086-088-633-658-670-281800- MARINE OBSERVATIONS STATION/POSITION TIME TEMP WIND PRES WAVE SWELL AIR SEA DIR/SP/G HT/PER HT/PER (UTC) (F) (DEG/KT/KT) (MB) (FT/S) (FT/S) CHESAPEAKE LIGHT NOT AVBL 64 E VA BEACH 1650 60 56 210/ 10/ 12 1019.5 5/ 7 5/ 7 DUCK 1700 79 56 210/ 8/ 11 1018.2 2 E DUCK 1700 61 N/A 3/ 8 2/11 OREGON INLET 1700 74 73 190/ 15/ 18 1019.3 13E OREGON INLT 1648 62 N/A 5/ 6 3/ 8 HATTERAS CG 1700 77 70 210/ 9/ 13 1020.0 DIAMOND BUOY 1650 78 76 210/ 17/ 19 1020.1 6/ 8 3/ 8 CAPE LOOKOUT 1700 78 210/ 12/ 16 1019.9 BEAUFORT LAB 1700 75 69 200/ 10/ 13 1019.3 30 SE NEW RVR IN 1708 74 210/ 10/ 12 1020.4 30 SE NEW RVR IN 1643 72 N/A 5/ 6 27 SE WRIGHTSVLE 1708 75 73 190/ 10/ 12 1019.6 5 SE WRIGHTSVLE 1708 73 71 190/ 12/ 14 1019.6 225 S CAPE HAT 1650 76 76 190/ 10/ 12 1022.6 4/ 8 3/ 8 41 SE CHARLESTON 1710 76 75 180/ 12/ 14 1019.6 $$

USA.gov is the U.S. government's official web portal to all federal, state and local government web resources and services.